owner,sensor,date,latitude,longitude,air_temperature,qcFlag 
WAVCIS,ioos:station:WAVCIS:CSI03:1,2009-12-01T00:00:00Z,29.4412,-92.0613,13.09,11111222 
WAVCIS,ioos:station:WAVCIS:CSI03:1,2009-12-01T01:00:00Z,29.4412,-92.0613,12.61,11111222 
WAVCIS,ioos:station:WAVCIS:CSI03:1,2009-12-01T02:00:00Z,29.4412,-92.0613,12.26,11111222 
WAVCIS,ioos:station:WAVCIS:CSI03:1,2009-12-01T03:00:00Z,29.4412,-92.0613,12.24,11111222 
WAVCIS,ioos:station:WAVCIS:CSI03:1,2009-12-01T04:00:00Z,29.4412,-92.0613,12.0,11111222 
WAVCIS,ioos:station:WAVCIS:CSI03:1,2009-12-01T05:00:00Z,29.4412,-92.0613,12.16,11111222 
WAVCIS,ioos:station:WAVCIS:CSI03:1,2009-12-01T06:00:00Z,29.4412,-92.0613,11.9,11111222 
WAVCIS,ioos:station:WAVCIS:CSI03:1,2009-12-01T07:00:00Z,29.4412,-92.0613,11.39,11111222 
WAVCIS,ioos:station:WAVCIS:CSI03:1,2009-12-01T08:00:00Z,29.4412,-92.0613,11.49,11111222 
WAVCIS,ioos:station:WAVCIS:CSI03:1,2009-12-01T09:00:00Z,29.4412,-92.0613,11.22,11111222 
WAVCIS,ioos:station:WAVCIS:CSI03:1,2009-12-01T10:00:00Z,29.4412,-92.0613,10.82,11111222 
WAVCIS,ioos:station:WAVCIS:CSI03:1,2009-12-01T11:00:00Z,29.4412,-92.0613,10.75,11111222 
WAVCIS,ioos:station:WAVCIS:CSI03:1,2009-12-01T12:00:00Z,29.4412,-92.0613,10.51,11111222 
WAVCIS,ioos:station:WAVCIS:CSI03:1,2009-12-01T13:00:00Z,29.4412,-92.0613,10.51,11111222 
WAVCIS,ioos:station:WAVCIS:CSI03:1,2009-12-01T14:00:00Z,29.4412,-92.0613,10.41,11111222 
WAVCIS,ioos:station:WAVCIS:CSI03:1,2009-12-01T15:00:00Z,29.4412,-92.0613,10.4,11111222 
WAVCIS,ioos:station:WAVCIS:CSI03:1,2009-12-01T16:00:00Z,29.4412,-92.0613,10.36,11111222 
WAVCIS,ioos:station:WAVCIS:CSI03:1,2009-12-01T17:00:00Z,29.4412,-92.0613,10.5,11111222 
WAVCIS,ioos:station:WAVCIS:CSI03:1,2009-12-01T18:00:00Z,29.4412,-92.0613,10.92,11111222 
WAVCIS,ioos:station:WAVCIS:CSI03:1,2009-12-01T19:00:00Z,29.4412,-92.0613,11.21,11111222 
WAVCIS,ioos:station:WAVCIS:CSI03:1,2009-12-01T20:00:00Z,29.4412,-92.0613,11.68,11111222 
WAVCIS,ioos:station:WAVCIS:CSI03:1,2009-12-01T21:00:00Z,29.4412,-92.0613,11.38,11111222 
WAVCIS,ioos:station:WAVCIS:CSI03:1,2009-12-01T22:00:00Z,29.4412,-92.0613,11.63,11111222 
WAVCIS,ioos:station:WAVCIS:CSI03:1,2009-12-01T23:00:00Z,29.4412,-92.0613,13.0,11111222 
WAVCIS,ioos:station:WAVCIS:CSI03:1,2009-12-02T00:00:00Z,29.4412,-92.0613,15.04,11111222 
WAVCIS,ioos:station:WAVCIS:CSI03:1,2009-12-02T01:00:00Z,29.4412,-92.0613,15.51,11111222 
WAVCIS,ioos:station:WAVCIS:CSI03:1,2009-12-02T02:00:00Z,29.4412,-92.0613,15.56,11111222 
WAVCIS,ioos:station:WAVCIS:CSI03:1,2009-12-02T03:00:00Z,29.4412,-92.0613,15.29,11111222 
WAVCIS,ioos:station:WAVCIS:CSI03:1,2009-12-02T04:00:00Z,29.4412,-92.0613,15.72,11111222 
WAVCIS,ioos:station:WAVCIS:CSI03:1,2009-12-02T05:00:00Z,29.4412,-92.0613,15.36,11111222 
WAVCIS,ioos:station:WAVCIS:CSI03:1,2009-12-02T06:00:00Z,29.4412,-92.0613,15.14,11111222 
WAVCIS,ioos:station:WAVCIS:CSI03:1,2009-12-02T07:00:00Z,29.4412,-92.0613,10.35,11111222 
WAVCIS,ioos:station:WAVCIS:CSI03:1,2009-12-02T08:00:00Z,29.4412,-92.0613,11.07,11111222 
WAVCIS,ioos:station:WAVCIS:CSI03:1,2009-12-02T09:00:00Z,29.4412,-92.0613,11.28,11111222 
WAVCIS,ioos:station:WAVCIS:CSI03:1,2009-12-02T10:00:00Z,29.4412,-92.0613,11.22,11111222 
WAVCIS,ioos:station:WAVCIS:CSI03:1,2009-12-02T11:00:00Z,29.4412,-92.0613,11.93,11111222 
WAVCIS,ioos:station:WAVCIS:CSI03:1,2009-12-02T12:00:00Z,29.4412,-92.0613,12.08,11111222 
WAVCIS,ioos:station:WAVCIS:CSI03:1,2009-12-02T13:00:00Z,29.4412,-92.0613,14.08,11111222 
WAVCIS,ioos:station:WAVCIS:CSI03:1,2009-12-02T14:00:00Z,29.4412,-92.0613,14.84,11111222 
WAVCIS,ioos:station:WAVCIS:CSI03:1,2009-12-02T15:00:00Z,29.4412,-92.0613,15.74,11111222 
WAVCIS,ioos:station:WAVCIS:CSI03:1,2009-12-02T16:00:00Z,29.4412,-92.0613,15.46,11111222 
WAVCIS,ioos:station:WAVCIS:CSI03:1,2009-12-02T17:00:00Z,29.4412,-92.0613,14.52,11111222 
WAVCIS,ioos:station:WAVCIS:CSI03:1,2009-12-02T18:00:00Z,29.4412,-92.0613,13.42,11111222 
WAVCIS,ioos:station:WAVCIS:CSI03:1,2009-12-02T19:00:00Z,29.4412,-92.0613,12.29,11111222 
WAVCIS,ioos:station:WAVCIS:CSI03:1,2009-12-02T20:00:00Z,29.4412,-92.0613,12.5,11111222 
WAVCIS,ioos:station:WAVCIS:CSI03:1,2009-12-02T21:00:00Z,29.4412,-92.0613,12.54,11111222 
WAVCIS,ioos:station:WAVCIS:CSI03:1,2009-12-02T22:00:00Z,29.4412,-92.0613,11.58,11111222 
WAVCIS,ioos:station:WAVCIS:CSI03:1,2009-12-02T23:00:00Z,29.4412,-92.0613,11.28,11111222 
WAVCIS,ioos:station:WAVCIS:CSI03:1,2009-12-03T00:00:00Z,29.4412,-92.0613,10.61,11111222 
WAVCIS,ioos:station:WAVCIS:CSI03:1,2009-12-03T01:00:00Z,29.4412,-92.0613,10.47,11111222 
WAVCIS,ioos:station:WAVCIS:CSI03:1,2009-12-03T02:00:00Z,29.4412,-92.0613,9.97,11111222 
WAVCIS,ioos:station:WAVCIS:CSI03:1,2009-12-03T03:00:00Z,29.4412,-92.0613,9.57,11111222 
WAVCIS,ioos:station:WAVCIS:CSI03:1,2009-12-03T04:00:00Z,29.4412,-92.0613,9.0,11111222 
WAVCIS,ioos:station:WAVCIS:CSI03:1,2009-12-03T05:00:00Z,29.4412,-92.0613,8.88,11111222 
WAVCIS,ioos:station:WAVCIS:CSI03:1,2009-12-03T06:00:00Z,29.4412,-92.0613,8.72,11111222 
WAVCIS,ioos:station:WAVCIS:CSI03:1,2009-12-03T07:00:00Z,29.4412,-92.0613,8.44,11111222 
WAVCIS,ioos:station:WAVCIS:CSI03:1,2009-12-03T08:00:00Z,29.4412,-92.0613,8.48,11111222 
WAVCIS,ioos:station:WAVCIS:CSI03:1,2009-12-03T09:00:00Z,29.4412,-92.0613,8.51,11111222 
WAVCIS,ioos:station:WAVCIS:CSI03:1,2009-12-03T10:00:00Z,29.4412,-92.0613,7.94,11111222 
WAVCIS,ioos:station:WAVCIS:CSI03:1,2009-12-03T11:00:00Z,29.4412,-92.0613,7.44,11111222 
WAVCIS,ioos:station:WAVCIS:CSI03:1,2009-12-03T12:00:00Z,29.4412,-92.0613,7.29,11111222 
WAVCIS,ioos:station:WAVCIS:CSI03:1,2009-12-03T13:00:00Z,29.4412,-92.0613,7.34,11111222 
WAVCIS,ioos:station:WAVCIS:CSI03:1,2009-12-03T14:00:00Z,29.4412,-92.0613,7.45,11111222 
WAVCIS,ioos:station:WAVCIS:CSI03:1,2009-12-03T15:00:00Z,29.4412,-92.0613,7.9,11111222 
WAVCIS,ioos:station:WAVCIS:CSI03:1,2009-12-03T16:00:00Z,29.4412,-92.0613,8.23,11111222 
WAVCIS,ioos:station:WAVCIS:CSI03:1,2009-12-03T17:00:00Z,29.4412,-92.0613,9.16,11111222 
WAVCIS,ioos:station:WAVCIS:CSI03:1,2009-12-03T18:00:00Z,29.4412,-92.0613,9.48,11111222 
WAVCIS,ioos:station:WAVCIS:CSI03:1,2009-12-03T19:00:00Z,29.4412,-92.0613,9.51,11111222 
WAVCIS,ioos:station:WAVCIS:CSI03:1,2009-12-03T20:00:00Z,29.4412,-92.0613,10.35,11111222 
WAVCIS,ioos:station:WAVCIS:CSI03:1,2009-12-03T21:00:00Z,29.4412,-92.0613,10.89,11111222 
WAVCIS,ioos:station:WAVCIS:CSI03:1,2009-12-03T22:00:00Z,29.4412,-92.0613,11.18,11111222 
WAVCIS,ioos:station:WAVCIS:CSI03:1,2009-12-03T23:00:00Z,29.4412,-92.0613,11.06,11111222 
WAVCIS,ioos:station:WAVCIS:CSI03:1,2009-12-04T00:00:00Z,29.4412,-92.0613,10.48,11111222 
WAVCIS,ioos:station:WAVCIS:CSI03:1,2009-12-04T01:00:00Z,29.4412,-92.0613,10.3,11111222 
WAVCIS,ioos:station:WAVCIS:CSI03:1,2009-12-04T02:00:00Z,29.4412,-92.0613,10.1,11111222 
WAVCIS,ioos:station:WAVCIS:CSI03:1,2009-12-04T03:00:00Z,29.4412,-92.0613,10.16,11111222 
WAVCIS,ioos:station:WAVCIS:CSI03:1,2009-12-04T04:00:00Z,29.4412,-92.0613,9.49,11111222 
WAVCIS,ioos:station:WAVCIS:CSI03:1,2009-12-04T05:00:00Z,29.4412,-92.0613,9.28,11111222 
WAVCIS,ioos:station:WAVCIS:CSI03:1,2009-12-04T06:00:00Z,29.4412,-92.0613,9.17,11111222 
WAVCIS,ioos:station:WAVCIS:CSI03:1,2009-12-04T07:00:00Z,29.4412,-92.0613,8.81,11111222 
WAVCIS,ioos:station:WAVCIS:CSI03:1,2009-12-04T08:00:00Z,29.4412,-92.0613,8.74,11111222 
WAVCIS,ioos:station:WAVCIS:CSI03:1,2009-12-04T09:00:00Z,29.4412,-92.0613,8.18,11111222 
WAVCIS,ioos:station:WAVCIS:CSI03:1,2009-12-04T10:00:00Z,29.4412,-92.0613,8.09,11111222 
WAVCIS,ioos:station:WAVCIS:CSI03:1,2009-12-04T11:00:00Z,29.4412,-92.0613,7.59,11111222 
WAVCIS,ioos:station:WAVCIS:CSI03:1,2009-12-04T12:00:00Z,29.4412,-92.0613,7.53,11111222 
WAVCIS,ioos:station:WAVCIS:CSI03:1,2009-12-04T13:00:00Z,29.4412,-92.0613,7.46,11111222 
WAVCIS,ioos:station:WAVCIS:CSI03:1,2009-12-04T14:00:00Z,29.4412,-92.0613,7.17,11111222 
WAVCIS,ioos:station:WAVCIS:CSI03:1,2009-12-04T15:00:00Z,29.4412,-92.0613,7.51,11111222 
WAVCIS,ioos:station:WAVCIS:CSI03:1,2009-12-04T16:00:00Z,29.4412,-92.0613,7.76,11111222 
WAVCIS,ioos:station:WAVCIS:CSI03:1,2009-12-04T17:00:00Z,29.4412,-92.0613,7.75,11111222 
WAVCIS,ioos:station:WAVCIS:CSI03:1,2009-12-04T18:00:00Z,29.4412,-92.0613,7.68,11111222 
WAVCIS,ioos:station:WAVCIS:CSI03:1,2009-12-04T19:00:00Z,29.4412,-92.0613,7.3,11111222 
WAVCIS,ioos:station:WAVCIS:CSI03:1,2009-12-04T20:00:00Z,29.4412,-92.0613,7.21,11111222 
WAVCIS,ioos:station:WAVCIS:CSI03:1,2009-12-04T21:00:00Z,29.4412,-92.0613,6.709,11111222 
WAVCIS,ioos:station:WAVCIS:CSI03:1,2009-12-04T22:00:00Z,29.4412,-92.0613,5.686,11111222 
WAVCIS,ioos:station:WAVCIS:CSI03:1,2009-12-04T23:00:00Z,29.4412,-92.0613,4.603,11111222 
WAVCIS,ioos:station:WAVCIS:CSI03:1,2009-12-05T00:00:00Z,29.4412,-92.0613,4.372,11111222 
WAVCIS,ioos:station:WAVCIS:CSI03:1,2009-12-05T01:00:00Z,29.4412,-92.0613,3.989,11111222 
WAVCIS,ioos:station:WAVCIS:CSI03:1,2009-12-05T02:00:00Z,29.4412,-92.0613,3.75,11111222 
WAVCIS,ioos:station:WAVCIS:CSI03:1,2009-12-05T03:00:00Z,29.4412,-92.0613,3.521,11111222 
WAVCIS,ioos:station:WAVCIS:CSI03:1,2009-12-05T04:00:00Z,29.4412,-92.0613,3.282,11111222 
WAVCIS,ioos:station:WAVCIS:CSI03:1,2009-12-05T05:00:00Z,29.4412,-92.0613,3.189,11111222 
WAVCIS,ioos:station:WAVCIS:CSI03:1,2009-12-05T06:00:00Z,29.4412,-92.0613,2.897,11111222 
WAVCIS,ioos:station:WAVCIS:CSI03:1,2009-12-05T07:00:00Z,29.4412,-92.0613,2.768,11111222 
WAVCIS,ioos:station:WAVCIS:CSI03:1,2009-12-05T08:00:00Z,29.4412,-92.0613,2.919,11111222 
WAVCIS,ioos:station:WAVCIS:CSI03:1,2009-12-05T09:00:00Z,29.4412,-92.0613,2.961,11111222 
WAVCIS,ioos:station:WAVCIS:CSI03:1,2009-12-05T10:00:00Z,29.4412,-92.0613,2.454,11111222 
WAVCIS,ioos:station:WAVCIS:CSI03:1,2009-12-05T11:00:00Z,29.4412,-92.0613,2.469,11111222 
WAVCIS,ioos:station:WAVCIS:CSI03:1,2009-12-05T12:00:00Z,29.4412,-92.0613,2.413,11111222 
WAVCIS,ioos:station:WAVCIS:CSI03:1,2009-12-05T13:00:00Z,29.4412,-92.0613,2.335,11111222 
WAVCIS,ioos:station:WAVCIS:CSI03:1,2009-12-05T14:00:00Z,29.4412,-92.0613,2.491,11111222 
WAVCIS,ioos:station:WAVCIS:CSI03:1,2009-12-05T15:00:00Z,29.4412,-92.0613,2.584,11111222 
WAVCIS,ioos:station:WAVCIS:CSI03:1,2009-12-05T16:00:00Z,29.4412,-92.0613,2.878,11111222 
WAVCIS,ioos:station:WAVCIS:CSI03:1,2009-12-05T17:00:00Z,29.4412,-92.0613,3.378,11111222 
WAVCIS,ioos:station:WAVCIS:CSI03:1,2009-12-05T18:00:00Z,29.4412,-92.0613,4.058,11111222 
WAVCIS,ioos:station:WAVCIS:CSI03:1,2009-12-05T19:00:00Z,29.4412,-92.0613,4.977,11111222 
WAVCIS,ioos:station:WAVCIS:CSI03:1,2009-12-05T20:00:00Z,29.4412,-92.0613,5.522,11111222 
WAVCIS,ioos:station:WAVCIS:CSI03:1,2009-12-05T21:00:00Z,29.4412,-92.0613,6.263,11111222 
WAVCIS,ioos:station:WAVCIS:CSI03:1,2009-12-05T22:00:00Z,29.4412,-92.0613,6.988,11111222 
WAVCIS,ioos:station:WAVCIS:CSI03:1,2009-12-05T23:00:00Z,29.4412,-92.0613,7.08,11111222 
WAVCIS,ioos:station:WAVCIS:CSI03:1,2009-12-06T00:00:00Z,29.4412,-92.0613,6.908,11111222 
WAVCIS,ioos:station:WAVCIS:CSI03:1,2009-12-06T01:00:00Z,29.4412,-92.0613,7.26,11111222 
WAVCIS,ioos:station:WAVCIS:CSI03:1,2009-12-06T02:00:00Z,29.4412,-92.0613,7.49,11111222 
WAVCIS,ioos:station:WAVCIS:CSI03:1,2009-12-06T03:00:00Z,29.4412,-92.0613,7.69,11111222 
WAVCIS,ioos:station:WAVCIS:CSI03:1,2009-12-06T04:00:00Z,29.4412,-92.0613,7.69,11111222 
WAVCIS,ioos:station:WAVCIS:CSI03:1,2009-12-06T05:00:00Z,29.4412,-92.0613,7.85,11111222 
WAVCIS,ioos:station:WAVCIS:CSI03:1,2009-12-06T06:00:00Z,29.4412,-92.0613,8.01,11111222 
WAVCIS,ioos:station:WAVCIS:CSI03:1,2009-12-06T07:00:00Z,29.4412,-92.0613,7.91,11111222 
WAVCIS,ioos:station:WAVCIS:CSI03:1,2009-12-06T08:00:00Z,29.4412,-92.0613,7.91,11111222 
WAVCIS,ioos:station:WAVCIS:CSI03:1,2009-12-06T09:00:00Z,29.4412,-92.0613,7.8,11111222 
WAVCIS,ioos:station:WAVCIS:CSI03:1,2009-12-06T10:00:00Z,29.4412,-92.0613,7.74,11111222 
WAVCIS,ioos:station:WAVCIS:CSI03:1,2009-12-06T11:00:00Z,29.4412,-92.0613,7.77,11111222 
WAVCIS,ioos:station:WAVCIS:CSI03:1,2009-12-06T12:00:00Z,29.4412,-92.0613,7.72,11111222 
WAVCIS,ioos:station:WAVCIS:CSI03:1,2009-12-06T13:00:00Z,29.4412,-92.0613,8.02,11111222 
WAVCIS,ioos:station:WAVCIS:CSI03:1,2009-12-06T14:00:00Z,29.4412,-92.0613,8.39,11111222 
WAVCIS,ioos:station:WAVCIS:CSI03:1,2009-12-06T15:00:00Z,29.4412,-92.0613,8.42,11111222 
WAVCIS,ioos:station:WAVCIS:CSI03:1,2009-12-06T16:00:00Z,29.4412,-92.0613,8.72,11111222 
WAVCIS,ioos:station:WAVCIS:CSI03:1,2009-12-06T17:00:00Z,29.4412,-92.0613,8.88,11111222 
WAVCIS,ioos:station:WAVCIS:CSI03:1,2009-12-06T18:00:00Z,29.4412,-92.0613,9.76,11111222 
WAVCIS,ioos:station:WAVCIS:CSI03:1,2009-12-06T19:00:00Z,29.4412,-92.0613,10.25,11111222 
WAVCIS,ioos:station:WAVCIS:CSI03:1,2009-12-06T20:00:00Z,29.4412,-92.0613,10.73,11111222 
WAVCIS,ioos:station:WAVCIS:CSI03:1,2009-12-06T21:00:00Z,29.4412,-92.0613,11.43,11111222 
WAVCIS,ioos:station:WAVCIS:CSI03:1,2009-12-06T22:00:00Z,29.4412,-92.0613,12.06,11111222 
WAVCIS,ioos:station:WAVCIS:CSI03:1,2009-12-06T23:00:00Z,29.4412,-92.0613,12.44,11111222 
WAVCIS,ioos:station:WAVCIS:CSI03:1,2009-12-07T00:00:00Z,29.4412,-92.0613,12.87,11111222 
WAVCIS,ioos:station:WAVCIS:CSI03:1,2009-12-07T01:00:00Z,29.4412,-92.0613,12.66,11111222 
WAVCIS,ioos:station:WAVCIS:CSI03:1,2009-12-07T02:00:00Z,29.4412,-92.0613,12.67,11111222 
WAVCIS,ioos:station:WAVCIS:CSI03:1,2009-12-07T03:00:00Z,29.4412,-92.0613,12.87,11111222 
WAVCIS,ioos:station:WAVCIS:CSI03:1,2009-12-07T04:00:00Z,29.4412,-92.0613,13.09,11111222 
WAVCIS,ioos:station:WAVCIS:CSI03:1,2009-12-07T05:00:00Z,29.4412,-92.0613,13.19,11111222 
WAVCIS,ioos:station:WAVCIS:CSI03:1,2009-12-07T06:00:00Z,29.4412,-92.0613,13.24,11111222 
WAVCIS,ioos:station:WAVCIS:CSI03:1,2009-12-07T07:00:00Z,29.4412,-92.0613,13.55,11111222 
WAVCIS,ioos:station:WAVCIS:CSI03:1,2009-12-07T08:00:00Z,29.4412,-92.0613,13.57,11111222 
WAVCIS,ioos:station:WAVCIS:CSI03:1,2009-12-07T09:00:00Z,29.4412,-92.0613,14.17,11111222 
WAVCIS,ioos:station:WAVCIS:CSI03:1,2009-12-07T10:00:00Z,29.4412,-92.0613,14.4,11111222 
WAVCIS,ioos:station:WAVCIS:CSI03:1,2009-12-07T11:00:00Z,29.4412,-92.0613,14.6,11111222 
WAVCIS,ioos:station:WAVCIS:CSI03:1,2009-12-07T12:00:00Z,29.4412,-92.0613,14.42,11111222 
WAVCIS,ioos:station:WAVCIS:CSI03:1,2009-12-07T13:00:00Z,29.4412,-92.0613,15.0,11111222 
WAVCIS,ioos:station:WAVCIS:CSI03:1,2009-12-07T14:00:00Z,29.4412,-92.0613,16.3,11111222 
WAVCIS,ioos:station:WAVCIS:CSI03:1,2009-12-07T15:00:00Z,29.4412,-92.0613,17.7,11111222 
WAVCIS,ioos:station:WAVCIS:CSI03:1,2009-12-07T16:00:00Z,29.4412,-92.0613,18.37,11111222 
WAVCIS,ioos:station:WAVCIS:CSI03:1,2009-12-07T17:00:00Z,29.4412,-92.0613,19.5,11111222 
WAVCIS,ioos:station:WAVCIS:CSI03:1,2009-12-07T18:00:00Z,29.4412,-92.0613,18.36,11111222 
WAVCIS,ioos:station:WAVCIS:CSI03:1,2009-12-07T19:00:00Z,29.4412,-92.0613,17.83,11111222 
WAVCIS,ioos:station:WAVCIS:CSI03:1,2009-12-07T20:00:00Z,29.4412,-92.0613,15.62,11111222 
WAVCIS,ioos:station:WAVCIS:CSI03:1,2009-12-07T21:00:00Z,29.4412,-92.0613,15.44,11111222 
WAVCIS,ioos:station:WAVCIS:CSI03:1,2009-12-07T22:00:00Z,29.4412,-92.0613,15.58,11111222 
WAVCIS,ioos:station:WAVCIS:CSI03:1,2009-12-07T23:00:00Z,29.4412,-92.0613,15.68,11111222 
WAVCIS,ioos:station:WAVCIS:CSI03:1,2009-12-08T00:00:00Z,29.4412,-92.0613,15.49,11111222 
WAVCIS,ioos:station:WAVCIS:CSI03:1,2009-12-08T01:00:00Z,29.4412,-92.0613,16.37,11111222 
WAVCIS,ioos:station:WAVCIS:CSI03:1,2009-12-08T02:00:00Z,29.4412,-92.0613,17.25,11111222 
WAVCIS,ioos:station:WAVCIS:CSI03:1,2009-12-08T03:00:00Z,29.4412,-92.0613,16.15,11111222 
WAVCIS,ioos:station:WAVCIS:CSI03:1,2009-12-08T04:00:00Z,29.4412,-92.0613,16.93,11111222 
WAVCIS,ioos:station:WAVCIS:CSI03:1,2009-12-08T05:00:00Z,29.4412,-92.0613,17.36,11111222 
WAVCIS,ioos:station:WAVCIS:CSI03:1,2009-12-08T06:00:00Z,29.4412,-92.0613,18.24,11111222 
WAVCIS,ioos:station:WAVCIS:CSI03:1,2009-12-08T07:00:00Z,29.4412,-92.0613,19.52,11111222 
WAVCIS,ioos:station:WAVCIS:CSI03:1,2009-12-08T08:00:00Z,29.4412,-92.0613,19.65,11111222 
WAVCIS,ioos:station:WAVCIS:CSI03:1,2009-12-08T09:00:00Z,29.4412,-92.0613,19.95,11111222 
WAVCIS,ioos:station:WAVCIS:CSI03:1,2009-12-08T10:00:00Z,29.4412,-92.0613,20.31,11111222 
WAVCIS,ioos:station:WAVCIS:CSI03:1,2009-12-08T11:00:00Z,29.4412,-92.0613,19.64,11111222 
WAVCIS,ioos:station:WAVCIS:CSI03:1,2009-12-08T12:00:00Z,29.4412,-92.0613,18.84,11111222 
WAVCIS,ioos:station:WAVCIS:CSI03:1,2009-12-08T13:00:00Z,29.4412,-92.0613,19.47,11111222 
WAVCIS,ioos:station:WAVCIS:CSI03:1,2009-12-08T14:00:00Z,29.4412,-92.0613,21.17,11111222 
WAVCIS,ioos:station:WAVCIS:CSI03:1,2009-12-08T15:00:00Z,29.4412,-92.0613,20.04,11111222 
WAVCIS,ioos:station:WAVCIS:CSI03:1,2009-12-08T16:00:00Z,29.4412,-92.0613,20.99,11111222 
WAVCIS,ioos:station:WAVCIS:CSI03:1,2009-12-08T17:00:00Z,29.4412,-92.0613,19.82,11111222 
WAVCIS,ioos:station:WAVCIS:CSI03:1,2009-12-08T18:00:00Z,29.4412,-92.0613,19.91,11111222 
WAVCIS,ioos:station:WAVCIS:CSI03:1,2009-12-08T19:00:00Z,29.4412,-92.0613,19.67,11111222 
WAVCIS,ioos:station:WAVCIS:CSI03:1,2009-12-08T20:00:00Z,29.4412,-92.0613,19.89,11111222 
WAVCIS,ioos:station:WAVCIS:CSI03:1,2009-12-08T21:00:00Z,29.4412,-92.0613,19.41,11111222 
WAVCIS,ioos:station:WAVCIS:CSI03:1,2009-12-08T22:00:00Z,29.4412,-92.0613,19.3,11111222 
WAVCIS,ioos:station:WAVCIS:CSI03:1,2009-12-08T23:00:00Z,29.4412,-92.0613,19.15,11111222 
WAVCIS,ioos:station:WAVCIS:CSI03:1,2009-12-09T00:00:00Z,29.4412,-92.0613,18.96,11111222 
WAVCIS,ioos:station:WAVCIS:CSI03:1,2009-12-09T01:00:00Z,29.4412,-92.0613,20.01,11111222 
WAVCIS,ioos:station:WAVCIS:CSI03:1,2009-12-09T02:00:00Z,29.4412,-92.0613,21.48,11111222 
WAVCIS,ioos:station:WAVCIS:CSI03:1,2009-12-09T03:00:00Z,29.4412,-92.0613,21.13,11111222 
WAVCIS,ioos:station:WAVCIS:CSI03:1,2009-12-09T04:00:00Z,29.4412,-92.0613,19.88,11111222 
WAVCIS,ioos:station:WAVCIS:CSI03:1,2009-12-09T05:00:00Z,29.4412,-92.0613,23.38,11111222 
WAVCIS,ioos:station:WAVCIS:CSI03:1,2009-12-09T06:00:00Z,29.4412,-92.0613,23.15,11111222 
WAVCIS,ioos:station:WAVCIS:CSI03:1,2009-12-09T07:00:00Z,29.4412,-92.0613,21.89,11111222 
WAVCIS,ioos:station:WAVCIS:CSI03:1,2009-12-09T08:00:00Z,29.4412,-92.0613,21.59,11111222 
WAVCIS,ioos:station:WAVCIS:CSI03:1,2009-12-09T09:00:00Z,29.4412,-92.0613,22.85,11111222 
WAVCIS,ioos:station:WAVCIS:CSI03:1,2009-12-09T10:00:00Z,29.4412,-92.0613,19.96,11111222 
WAVCIS,ioos:station:WAVCIS:CSI03:1,2009-12-09T11:00:00Z,29.4412,-92.0613,18.69,11111222 
WAVCIS,ioos:station:WAVCIS:CSI03:1,2009-12-09T12:00:00Z,29.4412,-92.0613,17.98,11111222 
WAVCIS,ioos:station:WAVCIS:CSI03:1,2009-12-09T13:00:00Z,29.4412,-92.0613,17.01,11111222 
WAVCIS,ioos:station:WAVCIS:CSI03:1,2009-12-09T14:00:00Z,29.4412,-92.0613,16.49,11111222 
WAVCIS,ioos:station:WAVCIS:CSI03:1,2009-12-09T15:00:00Z,29.4412,-92.0613,16.11,11111222 
WAVCIS,ioos:station:WAVCIS:CSI03:1,2009-12-09T16:00:00Z,29.4412,-92.0613,16.62,11111222 
WAVCIS,ioos:station:WAVCIS:CSI03:1,2009-12-09T17:00:00Z,29.4412,-92.0613,16.08,11111222 
WAVCIS,ioos:station:WAVCIS:CSI03:1,2009-12-09T18:00:00Z,29.4412,-92.0613,15.61,11111222 
WAVCIS,ioos:station:WAVCIS:CSI03:1,2009-12-09T19:00:00Z,29.4412,-92.0613,16.05,11111222 
WAVCIS,ioos:station:WAVCIS:CSI03:1,2009-12-09T20:00:00Z,29.4412,-92.0613,16.15,11111222 
WAVCIS,ioos:station:WAVCIS:CSI03:1,2009-12-09T21:00:00Z,29.4412,-92.0613,16.21,11111222 
WAVCIS,ioos:station:WAVCIS:CSI03:1,2009-12-09T22:00:00Z,29.4412,-92.0613,15.44,11111222 
WAVCIS,ioos:station:WAVCIS:CSI03:1,2009-12-09T23:00:00Z,29.4412,-92.0613,14.21,11111222 
WAVCIS,ioos:station:WAVCIS:CSI03:1,2009-12-10T00:00:00Z,29.4412,-92.0613,13.68,11111222 
WAVCIS,ioos:station:WAVCIS:CSI03:1,2009-12-10T01:00:00Z,29.4412,-92.0613,13.23,11111222 
WAVCIS,ioos:station:WAVCIS:CSI03:1,2009-12-10T02:00:00Z,29.4412,-92.0613,12.72,11111222 
WAVCIS,ioos:station:WAVCIS:CSI03:1,2009-12-10T03:00:00Z,29.4412,-92.0613,11.39,11111222 
WAVCIS,ioos:station:WAVCIS:CSI03:1,2009-12-10T04:00:00Z,29.4412,-92.0613,10.8,11111222 
WAVCIS,ioos:station:WAVCIS:CSI03:1,2009-12-10T05:00:00Z,29.4412,-92.0613,9.7,11111222 
WAVCIS,ioos:station:WAVCIS:CSI03:1,2009-12-10T06:00:00Z,29.4412,-92.0613,8.99,11111222 
WAVCIS,ioos:station:WAVCIS:CSI03:1,2009-12-10T07:00:00Z,29.4412,-92.0613,8.41,11111222 
WAVCIS,ioos:station:WAVCIS:CSI03:1,2009-12-10T08:00:00Z,29.4412,-92.0613,8.26,11111222 
WAVCIS,ioos:station:WAVCIS:CSI03:1,2009-12-10T09:00:00Z,29.4412,-92.0613,7.68,11111222 
WAVCIS,ioos:station:WAVCIS:CSI03:1,2009-12-10T10:00:00Z,29.4412,-92.0613,7.21,11111222 
WAVCIS,ioos:station:WAVCIS:CSI03:1,2009-12-10T11:00:00Z,29.4412,-92.0613,6.871,11111222 
WAVCIS,ioos:station:WAVCIS:CSI03:1,2009-12-10T12:00:00Z,29.4412,-92.0613,6.582,11111222 
WAVCIS,ioos:station:WAVCIS:CSI03:1,2009-12-10T13:00:00Z,29.4412,-92.0613,6.498,11111222 
WAVCIS,ioos:station:WAVCIS:CSI03:1,2009-12-10T14:00:00Z,29.4412,-92.0613,6.515,11111222 
WAVCIS,ioos:station:WAVCIS:CSI03:1,2009-12-10T15:00:00Z,29.4412,-92.0613,6.999,11111222 
WAVCIS,ioos:station:WAVCIS:CSI03:1,2009-12-10T16:00:00Z,29.4412,-92.0613,7.55,11111222 
WAVCIS,ioos:station:WAVCIS:CSI03:1,2009-12-10T17:00:00Z,29.4412,-92.0613,8.15,11111222 
WAVCIS,ioos:station:WAVCIS:CSI03:1,2009-12-10T18:00:00Z,29.4412,-92.0613,8.68,11111222 
WAVCIS,ioos:station:WAVCIS:CSI03:1,2009-12-10T19:00:00Z,29.4412,-92.0613,9.61,11111222 
WAVCIS,ioos:station:WAVCIS:CSI03:1,2009-12-10T20:00:00Z,29.4412,-92.0613,9.62,11111222 
WAVCIS,ioos:station:WAVCIS:CSI03:1,2009-12-10T21:00:00Z,29.4412,-92.0613,9.89,11111222 
WAVCIS,ioos:station:WAVCIS:CSI03:1,2009-12-10T22:00:00Z,29.4412,-92.0613,10.3,11111222 
WAVCIS,ioos:station:WAVCIS:CSI03:1,2009-12-10T23:00:00Z,29.4412,-92.0613,10.27,11111222 
WAVCIS,ioos:station:WAVCIS:CSI03:1,2009-12-11T00:00:00Z,29.4412,-92.0613,10.31,11111222 
WAVCIS,ioos:station:WAVCIS:CSI03:1,2009-12-11T01:00:00Z,29.4412,-92.0613,10.47,11111222 
WAVCIS,ioos:station:WAVCIS:CSI03:1,2009-12-11T02:00:00Z,29.4412,-92.0613,10.29,11111222 
WAVCIS,ioos:station:WAVCIS:CSI03:1,2009-12-11T03:00:00Z,29.4412,-92.0613,10.23,11111222 
WAVCIS,ioos:station:WAVCIS:CSI03:1,2009-12-11T04:00:00Z,29.4412,-92.0613,9.93,11111222 
WAVCIS,ioos:station:WAVCIS:CSI03:1,2009-12-11T05:00:00Z,29.4412,-92.0613,9.79,11111222 
WAVCIS,ioos:station:WAVCIS:CSI03:1,2009-12-11T06:00:00Z,29.4412,-92.0613,9.86,11111222 
WAVCIS,ioos:station:WAVCIS:CSI03:1,2009-12-11T07:00:00Z,29.4412,-92.0613,10.12,11111222 
WAVCIS,ioos:station:WAVCIS:CSI03:1,2009-12-11T08:00:00Z,29.4412,-92.0613,10.15,11111222 
WAVCIS,ioos:station:WAVCIS:CSI03:1,2009-12-11T09:00:00Z,29.4412,-92.0613,10.09,11111222 
WAVCIS,ioos:station:WAVCIS:CSI03:1,2009-12-11T10:00:00Z,29.4412,-92.0613,10.12,11111222 
WAVCIS,ioos:station:WAVCIS:CSI03:1,2009-12-11T11:00:00Z,29.4412,-92.0613,9.97,11111222 
WAVCIS,ioos:station:WAVCIS:CSI03:1,2009-12-11T12:00:00Z,29.4412,-92.0613,9.78,11111222 
WAVCIS,ioos:station:WAVCIS:CSI03:1,2009-12-11T13:00:00Z,29.4412,-92.0613,9.61,11111222 
WAVCIS,ioos:station:WAVCIS:CSI03:1,2009-12-11T14:00:00Z,29.4412,-92.0613,9.5,11111222 
WAVCIS,ioos:station:WAVCIS:CSI03:1,2009-12-11T15:00:00Z,29.4412,-92.0613,9.43,11111222 
WAVCIS,ioos:station:WAVCIS:CSI03:1,2009-12-11T16:00:00Z,29.4412,-92.0613,9.33,11111222 
WAVCIS,ioos:station:WAVCIS:CSI03:1,2009-12-11T17:00:00Z,29.4412,-92.0613,9.38,11111222 
WAVCIS,ioos:station:WAVCIS:CSI03:1,2009-12-11T18:00:00Z,29.4412,-92.0613,9.11,11111222 
WAVCIS,ioos:station:WAVCIS:CSI03:1,2009-12-11T19:00:00Z,29.4412,-92.0613,8.63,11111222 
WAVCIS,ioos:station:WAVCIS:CSI03:1,2009-12-11T20:00:00Z,29.4412,-92.0613,8.31,11111222 
WAVCIS,ioos:station:WAVCIS:CSI03:1,2009-12-11T21:00:00Z,29.4412,-92.0613,8.9,11111222 
WAVCIS,ioos:station:WAVCIS:CSI03:1,2009-12-11T22:00:00Z,29.4412,-92.0613,9.12,11111222 
WAVCIS,ioos:station:WAVCIS:CSI03:1,2009-12-11T23:00:00Z,29.4412,-92.0613,9.24,11111222 
WAVCIS,ioos:station:WAVCIS:CSI03:1,2009-12-12T00:00:00Z,29.4412,-92.0613,8.89,11111222 
WAVCIS,ioos:station:WAVCIS:CSI03:1,2009-12-12T01:00:00Z,29.4412,-92.0613,8.88,11111222 
WAVCIS,ioos:station:WAVCIS:CSI03:1,2009-12-12T02:00:00Z,29.4412,-92.0613,9.18,11111222 
WAVCIS,ioos:station:WAVCIS:CSI03:1,2009-12-12T03:00:00Z,29.4412,-92.0613,9.63,11111222 
WAVCIS,ioos:station:WAVCIS:CSI03:1,2009-12-12T04:00:00Z,29.4412,-92.0613,9.88,11111222 
WAVCIS,ioos:station:WAVCIS:CSI03:1,2009-12-12T05:00:00Z,29.4412,-92.0613,9.85,11111222 